#timestamp,LO_Frequency,Hit,StdDev 
1534665615.5,286047000.0,N
1534665635.3,286047000.4,N
1534665655.2,286047000.5,N
1534665675.9,286047000.2,N
1534665695.7,286046999.8,N
1534665715.6,286046999.9,N
1534665735.4,286047002.8,N
1534665755.3,286047000.6,N
1534665775.1,286047002.0,N
1534665776.0,286047002.0,N
1534665795.8,286047004.0,Y
1534665815.7,286047001.9,P
1534665835.5,286046999.7,N
1534665855.3,286046999.7,N
1534665875.2,286047000.6,N
1534665895.0,286047000.8,N
1534665895.9,286047000.8,N
1534665915.8,286047000.7,N
1534665935.6,286047000.4,N
1534665955.4,286046999.9,N
1534665975.3,286047000.0,N
1534665995.1,286047002.4,Y
1534666015.9,286047000.5,P
1534666035.7,286047002.2,P
1534666055.5,286047000.2,N
1534666075.4,286047000.1,N
1534666095.2,286046999.7,N
1534666115.0,286047000.2,N
1534666115.9,286047000.2,N
1534666135.8,286047002.4,Y
1534666155.6,286046999.9,P
1534666175.5,286047000.7,N
1534666195.3,286047001.1,P
1534666215.1,286047000.0,N
1534666235.9,286047000.1,N
1534666255.7,286047000.9,N
1534666275.6,286047000.2,N
1534666295.4,286047000.3,N
1534666315.2,286047001.0,N
1534666335.1,286047000.9,N
1534666336.0,286047000.9,N
1534666355.8,286047000.4,N
1534666375.7,286047000.4,N
1534666395.5,286047000.4,N
1534666415.3,286047000.2,N
1534666435.2,286047000.5,N
1534666455.0,286047000.5,N
1534666455.9,286047000.5,N
1534666475.7,286047000.4,N
1534666495.6,286047000.5,N
1534666515.4,286047000.4,N
1534666535.3,286047000.2,N
1534666555.1,286047000.5,N
1534666556.0,286047000.5,N
1534666575.8,286047000.7,N
1534666595.7,286047000.4,N
1534666615.5,286047000.9,N
1534666635.3,286047000.5,N
1534666655.2,286047002.5,Y
1534666675.0,286047000.3,P
1534666675.9,286047000.3,N
1534666695.8,286046999.5,P
1534666715.6,286046997.1,Y
1534666735.3,286046997.8,P
1534666755.1,286046997.8,N
1534666756.0,286046997.8,N
1534666775.8,286046996.9,Y
1534666795.7,286046998.2,P
1534666815.5,286046998.2,P
1534666835.4,286047000.7,P
1534666855.2,286047001.1,N
1534666875.0,286047000.7,N
1534666875.9,286047000.7,N
1534666895.8,286046999.8,N
1534666915.6,286047002.8,N
1534666935.4,286047002.8,N
1534666955.3,286046999.9,N
1534666975.1,286047002.6,N
1534666995.9,286047002.8,N
1534667015.7,286047002.4,N
1534667035.5,286047002.8,N
1534667055.4,286047002.4,N
1534667075.2,286047002.5,N
1534667095.0,286047002.4,N
1534667096.0,286047002.4,N
1534667115.8,286047000.3,N
1534667135.6,286047000.0,N
1534667155.5,286046999.9,N
1534667175.3,286047000.2,N
1534667195.1,286047000.1,N
1534667215.9,286047000.2,N
1534667235.7,286046999.7,N
1534667255.5,286047002.3,N
1534667275.4,286047002.8,N
1534667295.2,286047000.1,N
1534667315.1,286047000.2,N
1534667316.0,286047000.2,N
1534667335.8,286047000.2,N
1534667355.6,286047000.0,N
1534667375.5,286046999.8,N
1534667395.3,286047002.7,N
1534667415.2,286047002.4,N
1534667435.9,286046999.9,N
1534667455.7,286047002.7,N
1534667475.6,286047002.8,N
1534667495.4,286046999.7,N
1534667515.2,286047000.1,N
1534667535.1,286047000.3,N
1534667536.0,286047000.3,N
1534667555.8,286047000.3,N
1534667575.7,286047000.4,N
1534667595.5,286047000.9,N
1534667615.3,286047000.7,N
1534667635.2,286046998.5,N
1534667655.0,286046999.3,N
1534667655.9,286046999.3,N
1534667675.8,286046998.8,N
1534667695.6,286046999.6,N
1534667715.4,286046999.5,N
1534667735.3,286046996.6,N
1534667755.1,286046996.5,N
1534667775.8,286046997.2,N
1534667795.7,286046997.5,N
1534667815.5,286046995.1,Y
1534667835.4,286046995.1,P
1534667855.2,286046995.7,N
1534667875.0,286046993.8,N
1534667875.9,286046993.8,N
1534667895.8,286046994.2,N
1534667915.6,286046994.7,N
1534667935.5,286046992.2,Y
1534667955.3,286046996.8,P
1534667975.1,286046996.7,P
1534667995.9,286046995.4,P
1534668015.7,286046995.5,Y
1534668035.5,286047000.0,P
1534668055.4,286047000.7,N
1534668075.2,286047000.9,N
1534668095.1,286046999.9,N
1534668096.0,286046999.9,N
1534668115.8,286046998.2,N
1534668135.6,286047000.5,N
1534668155.5,286046998.2,N
1534668175.3,286046998.6,N
1534668195.1,286046998.9,N
1534668215.9,286046998.2,N
1534668235.7,286046998.7,N
1534668255.6,286046999.0,N
1534668275.4,286046999.6,N
1534668295.2,286046999.2,N
1534668315.1,286046999.1,N
1534668316.0,286046999.1,N
1534668335.8,286046996.6,Y
1534668355.7,286046999.4,P
1534668375.5,286046999.4,P
1534668395.3,286046999.2,P
1534668415.2,286046999.6,Y
1534668435.0,286046998.7,P
1534668435.9,286046998.7,P
1534668455.7,286046999.0,P
1534668475.6,286046999.5,N
1534668495.4,286046996.8,Y
1534668515.3,286046998.7,P
1534668535.1,286046999.3,P
1534668536.0,286046999.3,N
1534668555.8,286046999.1,Y
1534668575.7,286046998.2,P
1534668595.5,286047001.1,N
1534668615.4,286047000.8,N
1534668635.2,286046998.3,N
1534668655.0,286046998.7,N
1534668675.4,286046998.3,N
1534668695.2,286046998.8,N
1534668715.0,286046996.9,N
1534668715.9,286046996.9,N
1534668735.8,286046999.1,N
1534668755.5,286046999.6,N
1534668775.4,286046998.9,N
1534668795.2,286046998.3,N
1534668815.0,286046998.2,N
1534668816.0,286046998.2,N
1534668835.8,286046998.6,N
1534668855.6,286047000.6,N
1534668875.5,286046998.1,N
1534668895.3,286046999.4,N
1534668915.1,286046999.2,N
1534668935.9,286046999.5,N
1534668955.7,286046997.1,N
1534668975.6,286046999.5,N
1534668995.4,286046999.4,N
1534669015.2,286046996.5,Y
1534669035.1,286046998.6,P
1534669036.0,286046998.6,P
1534669055.8,286046998.2,P
1534669075.7,286047001.2,Y
1534669095.5,286046999.9,P
1534669115.3,286047000.3,N
1534669135.2,286047000.8,N
1534669155.0,286047001.1,N
1534669155.9,286047001.1,N
1534669175.7,286047001.1,N
1534669195.6,286046998.6,N
